Location: Camp at the Woods
(43.2055°N, 93.0905°W)
Time: 00:42:52
(UTC+00:00)

Cosmos 2227 Rocket - Pass Details

Date: 25 May 2025
Orbit: 837 x 844 km, 71.0° (Epoch: 12 June)

Event Time Altitude Azimuth Distance (km) Brightness Sun altitude
Exits shadow 08:04:41 40° 223° (SW) 1,217 2.5 -20.5°
Maximum altitude 08:06:44 71° 296° (WNW) 886 2.2 -20.3°
Drops below altitude 10° 08:12:23 10° 21° (NNE) 2,464 5.8 -19.8°
Sets 08:14:51 0° 24° (NNE) 3,403 6.9 -19.6°
